Time,TemperatureF,DewpointF,PressureIn,WindDirection,WindDirectionDegrees,WindSpeedMPH,WindSpeedGustMPH,Humidity,HourlyPrecipIn,Conditions,Clouds,dailyrainin,SoftwareType,DateUTC
2014-01-22 00:01:00,-8.6,-6.0,29.77,WNW,292,5.0,9.0,100,0.00,,,0.00,Rainwise IP-100,2014-01-22 05:01:00,
2014-01-22 00:02:00,-8.7,-6.0,29.77,NW,315,12.0,12.0,100,0.00,,,0.00,Rainwise IP-100,2014-01-22 05:02:00,
2014-01-22 00:06:00,-8.5,-6.0,29.76,NW,315,9.0,12.0,100,0.00,,,0.00,Rainwise IP-100,2014-01-22 05:06:00,
2014-01-22 00:11:00,-8.5,-6.0,29.76,NW,315,7.0,11.0,100,0.00,,,0.00,Rainwise IP-100,2014-01-22 05:11:00,
2014-01-22 00:16:00,-8.4,-6.0,29.76,NW,315,12.0,16.0,100,0.00,,,0.00,Rainwise IP-100,2014-01-22 05:16:00,
2014-01-22 00:21:00,-8.4,-6.0,29.76,NNW,337,9.0,15.0,100,0.00,,,0.00,Rainwise IP-100,2014-01-22 05:21:00,
2014-01-22 00:26:00,-8.6,-6.0,29.75,WNW,292,4.0,10.0,100,0.00,,,0.00,Rainwise IP-100,2014-01-22 05:26:00,
2014-01-22 00:31:00,-8.7,-6.0,29.76,NNW,337,10.0,10.0,100,0.00,,,0.00,Rainwise IP-100,2014-01-22 05:31:00,
2014-01-22 00:36:00,-8.7,-6.0,29.75,NW,315,13.0,13.0,100,0.00,,,0.00,Rainwise IP-100,2014-01-22 05:36:00,
2014-01-22 00:42:00,-8.7,-6.0,29.75,NW,315,10.0,12.0,100,0.00,,,0.00,Rainwise IP-100,2014-01-22 05:42:00,
2014-01-22 00:47:00,-8.8,-6.0,29.74,NNW,337,10.0,10.0,100,0.00,,,0.00,Rainwise IP-100,2014-01-22 05:47:00,
2014-01-22 00:52:00,-8.8,-6.0,29.74,NNW,337,7.0,13.0,100,0.00,,,0.00,Rainwise IP-100,2014-01-22 05:52:00,
2014-01-22 00:57:00,-8.9,-6.0,29.74,NW,315,9.0,10.0,100,0.00,,,0.00,Rainwise IP-100,2014-01-22 05:57:00,
2014-01-22 01:02:00,-9.1,-6.0,29.74,NW,315,5.0,9.0,100,0.00,,,0.00,Rainwise IP-100,2014-01-22 06:02:00,
2014-01-22 01:07:00,-9.2,-6.0,29.74,NW,315,7.0,10.0,100,0.00,,,0.00,Rainwise IP-100,2014-01-22 06:07:00,
2014-01-22 01:12:00,-9.2,-6.0,29.73,WNW,292,4.0,6.0,100,0.00,,,0.00,Rainwise IP-100,2014-01-22 06:12:00,
2014-01-22 01:18:00,-9.2,-6.0,29.73,NNW,337,9.0,11.0,100,0.00,,,0.00,Rainwise IP-100,2014-01-22 06:18:00,
2014-01-22 01:23:00,-9.1,-6.0,29.72,WNW,292,3.0,11.0,100,0.00,,,0.00,Rainwise IP-100,2014-01-22 06:23:00,
2014-01-22 01:28:00,-9.1,-6.0,29.73,WNW,292,7.0,7.0,100,0.00,,,0.00,Rainwise IP-100,2014-01-22 06:28:00,
2014-01-22 01:33:00,-9.1,-6.0,29.72,WNW,292,7.0,13.0,100,0.00,,,0.00,Rainwise IP-100,2014-01-22 06:33:00,
2014-01-22 01:38:00,-8.9,-6.0,29.72,WNW,292,6.0,9.0,100,0.00,,,0.00,Rainwise IP-100,2014-01-22 06:38:00,
2014-01-22 01:43:00,-8.7,-6.0,29.71,NNW,337,9.0,12.0,100,0.00,,,0.00,Rainwise IP-100,2014-01-22 06:43:00,
2014-01-22 01:48:00,-8.8,-6.0,29.71,NW,315,7.0,9.0,100,0.00,,,0.00,Rainwise IP-100,2014-01-22 06:48:00,
2014-01-22 01:53:00,-8.8,-6.0,29.71,NW,315,6.0,13.0,100,0.00,,,0.00,Rainwise IP-100,2014-01-22 06:53:00,
2014-01-22 01:59:00,-8.8,-6.0,29.72,NW,315,7.0,11.0,100,0.00,,,0.00,Rainwise IP-100,2014-01-22 06:59:00,
2014-01-22 02:04:00,-8.9,-6.0,29.73,NNW,337,9.0,9.0,100,0.00,,,0.00,Rainwise IP-100,2014-01-22 07:04:00,
2014-01-22 02:09:00,-8.9,-6.0,29.73,NW,315,9.0,9.0,100,0.00,,,0.00,Rainwise IP-100,2014-01-22 07:09:00,
2014-01-22 02:14:00,-8.9,-6.0,29.73,WNW,292,5.0,8.0,100,0.00,,,0.00,Rainwise IP-100,2014-01-22 07:14:00,
2014-01-22 02:19:00,-8.9,-6.0,29.73,NW,315,6.0,6.0,100,0.00,,,0.00,Rainwise IP-100,2014-01-22 07:19:00,
2014-01-22 02:24:00,-8.8,-6.0,29.72,NW,315,8.0,8.0,100,0.00,,,0.00,Rainwise IP-100,2014-01-22 07:24:00,
2014-01-22 02:29:00,-8.8,-6.0,29.72,NW,315,7.0,11.0,100,0.00,,,0.00,Rainwise IP-100,2014-01-22 07:29:00,
2014-01-22 02:35:00,-8.7,-6.0,29.72,NNW,337,12.0,12.0,100,0.00,,,0.00,Rainwise IP-100,2014-01-22 07:35:00,
2014-01-22 02:40:00,-8.7,-6.0,29.72,WNW,292,4.0,10.0,100,0.00,,,0.00,Rainwise IP-100,2014-01-22 07:40:00,
2014-01-22 02:45:00,-8.7,-6.0,29.72,NW,315,9.0,13.0,100,0.00,,,0.00,Rainwise IP-100,2014-01-22 07:45:00,
2014-01-22 02:50:00,-8.8,-6.0,29.72,NW,315,6.0,9.0,100,0.00,,,0.00,Rainwise IP-100,2014-01-22 07:50:00,
2014-01-22 02:55:00,-8.7,-6.0,29.71,WNW,292,6.0,9.0,100,0.00,,,0.00,Rainwise IP-100,2014-01-22 07:55:00,
2014-01-22 03:00:00,-8.8,-6.0,29.71,NW,315,8.0,10.0,100,0.00,,,0.00,Rainwise IP-100,2014-01-22 08:00:00,
2014-01-22 03:05:00,-8.7,-6.0,29.71,NNW,337,6.0,13.0,100,0.00,,,0.00,Rainwise IP-100,2014-01-22 08:05:00,
2014-01-22 03:10:00,-8.8,-6.0,29.71,WNW,292,6.0,13.0,100,0.00,,,0.00,Rainwise IP-100,2014-01-22 08:10:00,
2014-01-22 03:16:00,-8.8,-6.0,29.71,WNW,292,4.0,10.0,100,0.00,,,0.00,Rainwise IP-100,2014-01-22 08:16:00,
2014-01-22 03:21:00,-8.7,-6.0,29.71,NNW,337,7.0,10.0,100,0.00,,,0.00,Rainwise IP-100,2014-01-22 08:21:00,
2014-01-22 03:26:00,-8.8,-6.0,29.71,NW,315,11.0,11.0,100,0.00,,,0.00,Rainwise IP-100,2014-01-22 08:26:00,
2014-01-22 03:31:00,-8.9,-6.0,29.71,WNW,292,7.0,12.0,100,0.00,,,0.00,Rainwise IP-100,2014-01-22 08:31:00,
2014-01-22 03:36:00,-8.9,-6.0,29.71,WNW,292,8.0,8.0,100,0.00,,,0.00,Rainwise IP-100,2014-01-22 08:36:00,
2014-01-22 03:41:00,-8.9,-6.0,29.71,NW,315,6.0,10.0,100,0.00,,,0.00,Rainwise IP-100,2014-01-22 08:41:00,
2014-01-22 03:46:00,-9.1,-6.0,29.71,NW,315,12.0,12.0,100,0.00,,,0.00,Rainwise IP-100,2014-01-22 08:46:00,
2014-01-22 03:52:00,-9.1,-6.0,29.71,WNW,292,7.0,9.0,100,0.00,,,0.00,Rainwise IP-100,2014-01-22 08:52:00,
2014-01-22 03:57:00,-9.1,-6.0,29.71,WNW,292,7.0,9.0,100,0.00,,,0.00,Rainwise IP-100,2014-01-22 08:57:00,
2014-01-22 04:02:00,-9.1,-6.0,29.71,NW,315,5.0,9.0,100,0.00,,,0.00,Rainwise IP-100,2014-01-22 09:02:00,
2014-01-22 04:07:00,-9.1,-6.0,29.71,NNW,337,10.0,10.0,100,0.00,,,0.00,Rainwise IP-100,2014-01-22 09:07:00,
2014-01-22 04:12:00,-9.1,-6.0,29.71,NNW,337,7.0,12.0,100,0.00,,,0.00,Rainwise IP-100,2014-01-22 09:12:00,
2014-01-22 04:17:00,-9.2,-6.0,29.70,NW,315,6.0,9.0,100,0.00,,,0.00,Rainwise IP-100,2014-01-22 09:17:00,
2014-01-22 04:22:00,-9.1,-6.0,29.70,NNW,337,18.0,18.0,100,0.00,,,0.00,Rainwise IP-100,2014-01-22 09:22:00,
2014-01-22 04:27:00,-9.1,-6.0,29.70,WNW,292,4.0,7.0,100,0.00,,,0.00,Rainwise IP-100,2014-01-22 09:27:00,
2014-01-22 04:33:00,-8.9,-6.0,29.69,NNW,337,15.0,16.0,100,0.00,,,0.00,Rainwise IP-100,2014-01-22 09:33:00,
2014-01-22 04:38:00,-8.9,-6.0,29.69,NNW,337,10.0,11.0,100,0.00,,,0.00,Rainwise IP-100,2014-01-22 09:38:00,
2014-01-22 04:43:00,-9.1,-6.0,29.69,WNW,292,6.0,7.0,100,0.00,,,0.00,Rainwise IP-100,2014-01-22 09:43:00,
2014-01-22 04:48:00,-9.1,-6.0,29.69,NNW,337,7.0,7.0,100,0.00,,,0.00,Rainwise IP-100,2014-01-22 09:48:00,
2014-01-22 04:53:00,-9.2,-6.0,29.69,NW,315,10.0,10.0,100,0.00,,,0.00,Rainwise IP-100,2014-01-22 09:53:00,
2014-01-22 04:58:00,-9.2,-6.0,29.69,NW,315,5.0,8.0,100,0.00,,,0.00,Rainwise IP-100,2014-01-22 09:58:00,
2014-01-22 05:03:00,-9.2,-6.0,29.69,NW,315,9.0,9.0,100,0.00,,,0.00,Rainwise IP-100,2014-01-22 10:03:00,
2014-01-22 05:09:00,-9.2,-6.0,29.69,WNW,292,7.0,12.0,100,0.00,,,0.00,Rainwise IP-100,2014-01-22 10:09:00,
2014-01-22 05:14:00,-9.2,-6.0,29.70,WNW,292,6.0,10.0,100,0.00,,,0.00,Rainwise IP-100,2014-01-22 10:14:00,
2014-01-22 05:19:00,-9.2,-6.0,29.70,NW,315,4.0,11.0,100,0.00,,,0.00,Rainwise IP-100,2014-01-22 10:19:00,
2014-01-22 05:24:00,-9.3,-6.0,29.70,NNW,337,12.0,12.0,100,0.00,,,0.00,Rainwise IP-100,2014-01-22 10:24:00,
2014-01-22 05:29:00,-9.3,-6.0,29.70,NW,315,6.0,12.0,100,0.00,,,0.00,Rainwise IP-100,2014-01-22 10:29:00,
2014-01-22 05:34:00,-9.4,-6.0,29.71,NW,315,3.0,9.0,100,0.00,,,0.00,Rainwise IP-100,2014-01-22 10:34:00,
2014-01-22 05:39:00,-9.5,-6.0,29.71,NW,315,7.0,8.0,100,0.00,,,0.00,Rainwise IP-100,2014-01-22 10:39:00,
2014-01-22 05:44:00,-9.6,-6.0,29.70,NNW,337,6.0,9.0,100,0.00,,,0.00,Rainwise IP-100,2014-01-22 10:44:00,
2014-01-22 05:50:00,-9.6,-6.0,29.70,NW,315,7.0,9.0,100,0.00,,,0.00,Rainwise IP-100,2014-01-22 10:50:00,
2014-01-22 05:55:00,-9.7,-6.0,29.70,WNW,292,5.0,6.0,100,0.00,,,0.00,Rainwise IP-100,2014-01-22 10:55:00,
2014-01-22 06:00:00,-9.7,-6.0,29.70,NNW,337,6.0,10.0,100,0.00,,,0.00,Rainwise IP-100,2014-01-22 11:00:00,
2014-01-22 06:05:00,-9.6,-6.0,29.70,WNW,292,9.0,10.0,100,0.00,,,0.00,Rainwise IP-100,2014-01-22 11:05:00,
2014-01-22 06:10:00,-9.5,-6.0,29.70,NW,315,10.0,10.0,100,0.00,,,0.00,Rainwise IP-100,2014-01-22 11:10:00,
2014-01-22 06:15:00,-9.5,-6.0,29.70,NNW,337,10.0,10.0,100,0.00,,,0.00,Rainwise IP-100,2014-01-22 11:15:00,
2014-01-22 06:20:00,-9.6,-6.0,29.70,NW,315,10.0,10.0,100,0.00,,,0.00,Rainwise IP-100,2014-01-22 11:20:00,
2014-01-22 06:26:00,-9.7,-6.0,29.71,WNW,292,7.0,7.0,100,0.00,,,0.00,Rainwise IP-100,2014-01-22 11:26:00,
2014-01-22 06:31:00,-9.7,-6.0,29.71,NW,315,9.0,11.0,100,0.00,,,0.00,Rainwise IP-100,2014-01-22 11:31:00,
2014-01-22 06:36:00,-9.7,-6.0,29.71,WNW,292,6.0,10.0,100,0.00,,,0.00,Rainwise IP-100,2014-01-22 11:36:00,
2014-01-22 06:41:00,-9.7,-6.0,29.71,NW,315,4.0,9.0,100,0.00,,,0.00,Rainwise IP-100,2014-01-22 11:41:00,
2014-01-22 06:46:00,-9.7,-6.0,29.71,WNW,292,5.0,12.0,100,0.00,,,0.00,Rainwise IP-100,2014-01-22 11:46:00,
2014-01-22 06:51:00,-9.7,-6.0,29.71,NNW,337,10.0,10.0,100,0.00,,,0.00,Rainwise IP-100,2014-01-22 11:51:00,
2014-01-22 06:56:00,-9.7,-6.0,29.70,NW,315,7.0,10.0,100,0.00,,,0.00,Rainwise IP-100,2014-01-22 11:56:00,
2014-01-22 07:01:00,-9.7,-6.0,29.70,NNW,337,9.0,9.0,100,0.00,,,0.00,Rainwise IP-100,2014-01-22 12:01:00,
2014-01-22 07:07:00,-9.7,-6.0,29.70,NNW,337,12.0,13.0,100,0.00,,,0.00,Rainwise IP-100,2014-01-22 12:07:00,
2014-01-22 07:12:00,-9.7,-6.0,29.69,NNW,337,7.0,12.0,100,0.00,,,0.00,Rainwise IP-100,2014-01-22 12:12:00,
2014-01-22 07:17:00,-9.7,-6.0,29.69,WNW,292,5.0,13.0,100,0.00,,,0.00,Rainwise IP-100,2014-01-22 12:17:00,
2014-01-22 07:22:00,-9.7,-6.0,29.69,NNW,337,12.0,12.0,100,0.00,,,0.00,Rainwise IP-100,2014-01-22 12:22:00,
2014-01-22 07:27:00,-9.7,-6.0,29.69,NNW,337,10.0,12.0,100,0.00,,,0.00,Rainwise IP-100,2014-01-22 12:27:00,
2014-01-22 07:32:00,-9.7,-6.0,29.69,WNW,292,6.0,13.0,100,0.00,,,0.00,Rainwise IP-100,2014-01-22 12:32:00,
2014-01-22 07:37:00,-9.7,-6.0,29.69,NNW,337,11.0,11.0,100,0.00,,,0.00,Rainwise IP-100,2014-01-22 12:37:00,
2014-01-22 07:43:00,-9.7,-6.0,29.69,WNW,292,7.0,11.0,100,0.00,,,0.00,Rainwise IP-100,2014-01-22 12:43:00,
2014-01-22 07:48:00,-9.7,-6.0,29.69,NNW,337,13.0,14.0,100,0.00,,,0.00,Rainwise IP-100,2014-01-22 12:48:00,
2014-01-22 07:53:00,-9.5,-6.0,29.70,NNW,337,7.0,13.0,100,0.00,,,0.00,Rainwise IP-100,2014-01-22 12:53:00,
2014-01-22 07:58:00,-9.4,-6.0,29.70,WNW,292,4.0,10.0,100,0.00,,,0.00,Rainwise IP-100,2014-01-22 12:58:00,
2014-01-22 08:03:00,-9.3,-6.0,29.70,NW,315,6.0,11.0,100,0.00,,,0.00,Rainwise IP-100,2014-01-22 13:03:00,
2014-01-22 08:08:00,-9.2,-6.0,29.71,WNW,292,5.0,8.0,100,0.00,,,0.00,Rainwise IP-100,2014-01-22 13:08:00,
2014-01-22 08:13:00,-9.2,-6.0,29.70,WNW,292,7.0,7.0,100,0.00,,,0.00,Rainwise IP-100,2014-01-22 13:13:00,
2014-01-22 08:18:00,-9.2,-6.0,29.70,WNW,292,4.0,9.0,100,0.00,,,0.00,Rainwise IP-100,2014-01-22 13:18:00,
2014-01-22 08:24:00,-9.2,-6.0,29.70,NW,315,6.0,9.0,100,0.00,,,0.00,Rainwise IP-100,2014-01-22 13:24:00,
2014-01-22 08:29:00,-9.2,-6.0,29.70,NNW,337,8.0,9.0,100,0.00,,,0.00,Rainwise IP-100,2014-01-22 13:29:00,
2014-01-22 08:34:00,-9.2,-6.0,29.69,WNW,292,6.0,8.0,100,0.00,,,0.00,Rainwise IP-100,2014-01-22 13:34:00,
2014-01-22 08:39:00,-9.2,-6.0,29.69,NW,315,9.0,12.0,100,0.00,,,0.00,Rainwise IP-100,2014-01-22 13:39:00,
2014-01-22 08:44:00,-9.1,-6.0,29.70,WNW,292,6.0,10.0,100,0.00,,,0.00,Rainwise IP-100,2014-01-22 13:44:00,
2014-01-22 08:49:00,-8.9,-6.0,29.70,WNW,292,6.0,13.0,100,0.00,,,0.00,Rainwise IP-100,2014-01-22 13:49:00,
2014-01-22 08:54:00,-8.9,-6.0,29.69,NNW,337,8.0,12.0,100,0.00,,,0.00,Rainwise IP-100,2014-01-22 13:54:00,
2014-01-22 09:00:00,-8.8,-6.0,29.69,WNW,292,9.0,9.0,100,0.00,,,0.00,Rainwise IP-100,2014-01-22 14:00:00,
2014-01-22 09:05:00,-8.7,-6.0,29.69,North,360,12.0,12.0,100,0.00,,,0.00,Rainwise IP-100,2014-01-22 14:05:00,
2014-01-22 09:10:00,-8.5,-6.0,29.69,NNW,337,13.0,13.0,100,0.00,,,0.00,Rainwise IP-100,2014-01-22 14:10:00,
2014-01-22 09:15:00,-8.4,-6.0,29.69,WNW,292,7.0,12.0,100,0.00,,,0.00,Rainwise IP-100,2014-01-22 14:15:00,
2014-01-22 09:20:00,-8.2,-6.0,29.69,WNW,292,6.0,11.0,100,0.00,,,0.00,Rainwise IP-100,2014-01-22 14:20:00,
2014-01-22 09:25:00,-8.2,-6.0,29.69,NW,315,13.0,13.0,100,0.00,,,0.00,Rainwise IP-100,2014-01-22 14:25:00,
2014-01-22 09:30:00,-8.2,-6.0,29.69,WNW,292,6.0,13.0,100,0.00,,,0.00,Rainwise IP-100,2014-01-22 14:30:00,
2014-01-22 09:35:00,-8.2,-6.0,29.69,West,270,5.0,16.0,100,0.00,,,0.00,Rainwise IP-100,2014-01-22 14:35:00,
2014-01-22 09:41:00,-7.9,-6.0,29.69,NW,315,12.0,12.0,100,0.00,,,0.00,Rainwise IP-100,2014-01-22 14:41:00,
2014-01-22 09:46:00,-7.8,-6.0,29.69,NNW,337,9.0,12.0,100,0.00,,,0.00,Rainwise IP-100,2014-01-22 14:46:00,
2014-01-22 09:51:00,-7.7,-6.0,29.69,NW,315,8.0,10.0,100,0.00,,,0.00,Rainwise IP-100,2014-01-22 14:51:00,
2014-01-22 09:56:00,-7.9,-6.0,29.69,NNW,337,14.0,14.0,100,0.00,,,0.00,Rainwise IP-100,2014-01-22 14:56:00,
2014-01-22 10:01:00,-7.6,-6.0,29.70,NW,315,7.0,12.0,100,0.00,,,0.00,Rainwise IP-100,2014-01-22 15:01:00,
2014-01-22 10:06:00,-7.2,-6.0,29.69,NW,315,9.0,15.0,100,0.00,,,0.00,Rainwise IP-100,2014-01-22 15:06:00,
2014-01-22 10:11:00,-7.3,-6.0,29.70,NNW,337,10.0,15.0,100,0.00,,,0.00,Rainwise IP-100,2014-01-22 15:11:00,
2014-01-22 10:17:00,-6.9,-6.0,29.70,NNW,337,9.0,17.0,100,0.00,,,0.00,Rainwise IP-100,2014-01-22 15:17:00,
2014-01-22 10:22:00,-6.6,-6.0,29.70,NW,315,9.0,16.0,100,0.00,,,0.00,Rainwise IP-100,2014-01-22 15:22:00,
2014-01-22 10:27:00,-6.9,-6.0,29.70,WNW,292,7.0,19.0,100,0.00,,,0.00,Rainwise IP-100,2014-01-22 15:27:00,
2014-01-22 10:32:00,-6.8,-6.0,29.69,WNW,292,5.0,12.0,100,0.00,,,0.00,Rainwise IP-100,2014-01-22 15:32:00,
2014-01-22 10:37:00,-6.8,-6.0,29.69,NW,315,7.0,13.0,100,0.00,,,0.00,Rainwise IP-100,2014-01-22 15:37:00,
2014-01-22 10:42:00,-6.5,-6.0,29.69,North,360,10.0,14.0,100,0.00,,,0.00,Rainwise IP-100,2014-01-22 15:42:00,
2014-01-22 10:47:00,-6.5,-6.0,29.69,NW,315,7.0,13.0,100,0.00,,,0.00,Rainwise IP-100,2014-01-22 15:47:00,
2014-01-22 10:52:00,-6.2,-6.0,29.69,WNW,292,6.0,14.0,100,0.00,,,0.00,Rainwise IP-100,2014-01-22 15:52:00,
2014-01-22 10:58:00,-6.2,-6.0,29.68,WNW,292,10.0,15.0,100,0.00,,,0.00,Rainwise IP-100,2014-01-22 15:58:00,
2014-01-22 11:03:00,-6.1,-6.0,29.68,NW,315,5.0,16.0,100,0.00,,,0.00,Rainwise IP-100,2014-01-22 16:03:00,
2014-01-22 11:08:00,-5.8,-6.0,29.67,NW,315,4.0,12.0,100,0.00,,,0.00,Rainwise IP-100,2014-01-22 16:08:00,
2014-01-22 11:13:00,-5.7,-6.0,29.66,NW,315,13.0,13.0,100,0.00,,,0.00,Rainwise IP-100,2014-01-22 16:13:00,
2014-01-22 11:18:00,-5.2,0.0,29.66,NNW,337,13.0,13.0,100,0.00,,,0.00,Rainwise IP-100,2014-01-22 16:18:00,
2014-01-22 11:23:00,-5.4,0.0,29.65,NNW,337,15.0,16.0,100,0.00,,,0.00,Rainwise IP-100,2014-01-22 16:23:00,
2014-01-22 11:28:00,-5.5,0.0,29.64,NW,315,10.0,20.0,100,0.00,,,0.00,Rainwise IP-100,2014-01-22 16:28:00,
2014-01-22 11:34:00,-5.2,0.0,29.64,NNW,337,15.0,16.0,100,0.00,,,0.00,Rainwise IP-100,2014-01-22 16:34:00,
2014-01-22 11:39:00,-5.2,0.0,29.63,NNW,337,12.0,17.0,100,0.00,,,0.00,Rainwise IP-100,2014-01-22 16:39:00,
2014-01-22 11:44:00,-5.1,0.0,29.63,NW,315,9.0,16.0,100,0.00,,,0.00,Rainwise IP-100,2014-01-22 16:44:00,
2014-01-22 11:49:00,-4.7,0.0,29.62,NNE,22,10.0,16.0,100,0.00,,,0.00,Rainwise IP-100,2014-01-22 16:49:00,
2014-01-22 11:54:00,-4.6,0.0,29.62,NNW,337,13.0,17.0,100,0.00,,,0.00,Rainwise IP-100,2014-01-22 16:54:00,
2014-01-22 11:59:00,-4.2,0.0,29.62,NW,315,7.0,18.0,100,0.00,,,0.00,Rainwise IP-100,2014-01-22 16:59:00,
2014-01-22 12:04:00,-3.5,0.0,29.62,WNW,292,10.0,22.0,100,0.00,,,0.00,Rainwise IP-100,2014-01-22 17:04:00,
2014-01-22 12:09:00,-2.9,0.0,29.61,NNW,337,13.0,19.0,98,0.00,,,0.00,Rainwise IP-100,2014-01-22 17:09:00,
2014-01-22 12:15:00,-3.2,0.0,29.61,WNW,292,7.0,19.0,96,0.00,,,0.00,Rainwise IP-100,2014-01-22 17:15:00,
2014-01-22 12:20:00,-2.9,0.0,29.61,NW,315,12.0,22.0,97,0.00,,,0.00,Rainwise IP-100,2014-01-22 17:20:00,
2014-01-22 12:25:00,-2.6,0.0,29.61,NW,315,13.0,17.0,95,0.00,,,0.00,Rainwise IP-100,2014-01-22 17:25:00,
2014-01-22 12:30:00,-2.5,0.0,29.61,NNW,337,6.0,17.0,95,0.00,,,0.00,Rainwise IP-100,2014-01-22 17:30:00,
2014-01-22 12:35:00,-2.1,0.0,29.61,NNW,337,12.0,15.0,95,0.00,,,0.00,Rainwise IP-100,2014-01-22 17:35:00,
2014-01-22 12:40:00,-2.3,0.0,29.60,NW,315,13.0,19.0,95,0.00,,,0.00,Rainwise IP-100,2014-01-22 17:40:00,
2014-01-22 12:45:00,-2.6,0.0,29.61,NW,315,7.0,19.0,95,0.00,,,0.00,Rainwise IP-100,2014-01-22 17:45:00,
2014-01-22 12:51:00,-2.1,0.0,29.60,NW,315,9.0,17.0,95,0.00,,,0.00,Rainwise IP-100,2014-01-22 17:51:00,
2014-01-22 12:56:00,-1.7,0.0,29.60,WNW,292,12.0,16.0,94,0.00,,,0.00,Rainwise IP-100,2014-01-22 17:56:00,
2014-01-22 13:01:00,-1.5,0.0,29.60,NW,315,7.0,16.0,91,0.00,,,0.00,Rainwise IP-100,2014-01-22 18:01:00,
2014-01-22 13:06:00,-1.5,0.0,29.60,NNW,337,15.0,18.0,92,0.00,,,0.00,Rainwise IP-100,2014-01-22 18:06:00,
2014-01-22 13:11:00,-1.1,0.0,29.60,WNW,292,5.0,17.0,91,0.00,,,0.00,Rainwise IP-100,2014-01-22 18:11:00,
2014-01-22 13:16:00,-0.4,0.0,29.60,NNW,337,9.0,14.0,91,0.00,,,0.00,Rainwise IP-100,2014-01-22 18:16:00,
2014-01-22 13:21:00,-0.5,0.0,29.60,NW,315,6.0,15.0,89,0.00,,,0.00,Rainwise IP-100,2014-01-22 18:21:00,
2014-01-22 13:26:00,-0.3,0.0,29.60,NW,315,7.0,15.0,89,0.00,,,0.00,Rainwise IP-100,2014-01-22 18:26:00,
2014-01-22 13:32:00,-0.3,0.0,29.60,WNW,292,5.0,15.0,89,0.00,,,0.00,Rainwise IP-100,2014-01-22 18:32:00,
2014-01-22 13:37:00,-0.3,0.0,29.60,NNW,337,12.0,14.0,89,0.00,,,0.00,Rainwise IP-100,2014-01-22 18:37:00,
2014-01-22 13:42:00,-0.2,0.0,29.60,WNW,292,7.0,15.0,88,0.00,,,0.00,Rainwise IP-100,2014-01-22 18:42:00,
2014-01-22 13:47:00,-0.2,0.0,29.60,NW,315,9.0,14.0,89,0.00,,,0.00,Rainwise IP-100,2014-01-22 18:47:00,
2014-01-22 13:52:00,-0.3,0.0,29.60,NNW,337,10.0,15.0,89,0.00,,,0.00,Rainwise IP-100,2014-01-22 18:52:00,
2014-01-22 13:57:00,-0.3,0.0,29.60,NNW,337,12.0,15.0,89,0.00,,,0.00,Rainwise IP-100,2014-01-22 18:57:00,
2014-01-22 14:02:00,-0.1,-6.0,29.60,WNW,292,6.0,14.0,87,0.00,,,0.00,Rainwise IP-100,2014-01-22 19:02:00,
2014-01-22 14:08:00,0.4,-6.0,29.59,NNW,337,13.0,13.0,87,0.00,,,0.00,Rainwise IP-100,2014-01-22 19:08:00,
2014-01-22 14:13:00,-0.4,0.0,29.61,NW,315,8.0,15.0,88,0.00,,,0.00,Rainwise IP-100,2014-01-22 19:13:00,
2014-01-22 14:18:00,-0.3,-6.0,29.61,North,360,10.0,15.0,87,0.00,,,0.00,Rainwise IP-100,2014-01-22 19:18:00,
2014-01-22 14:23:00,-0.3,-6.0,29.62,WNW,292,5.0,12.0,87,0.00,,,0.00,Rainwise IP-100,2014-01-22 19:23:00,
2014-01-22 14:28:00,-0.7,0.0,29.62,NNW,337,9.0,13.0,88,0.00,,,0.00,Rainwise IP-100,2014-01-22 19:28:00,
2014-01-22 14:33:00,-0.9,0.0,29.62,North,360,9.0,14.0,89,0.00,,,0.00,Rainwise IP-100,2014-01-22 19:33:00,
2014-01-22 14:38:00,-1.1,0.0,29.62,WNW,292,6.0,15.0,89,0.00,,,0.00,Rainwise IP-100,2014-01-22 19:38:00,
2014-01-22 14:43:00,-0.9,0.0,29.62,NW,315,4.0,10.0,89,0.00,,,0.00,Rainwise IP-100,2014-01-22 19:43:00,
2014-01-22 14:49:00,-0.8,0.0,29.62,WNW,292,6.0,12.0,88,0.00,,,0.00,Rainwise IP-100,2014-01-22 19:49:00,
2014-01-22 14:54:00,-0.9,0.0,29.62,WNW,292,3.0,12.0,88,0.00,,,0.00,Rainwise IP-100,2014-01-22 19:54:00,
2014-01-22 14:59:00,-1.2,0.0,29.62,NNW,337,6.0,11.0,88,0.00,,,0.00,Rainwise IP-100,2014-01-22 19:59:00,
2014-01-22 15:04:00,-1.4,0.0,29.63,NW,315,5.0,10.0,89,0.00,,,0.00,Rainwise IP-100,2014-01-22 20:04:00,
2014-01-22 15:09:00,-1.5,0.0,29.63,NW,315,5.0,10.0,89,0.00,,,0.00,Rainwise IP-100,2014-01-22 20:09:00,
2014-01-22 15:14:00,-1.5,0.0,29.64,NW,315,2.0,9.0,89,0.00,,,0.00,Rainwise IP-100,2014-01-22 20:14:00,
2014-01-22 15:19:00,-1.3,0.0,29.63,NW,315,5.0,12.0,89,0.00,,,0.00,Rainwise IP-100,2014-01-22 20:19:00,
2014-01-22 15:25:00,-1.1,-6.0,29.64,NW,315,6.0,11.0,87,0.00,,,0.00,Rainwise IP-100,2014-01-22 20:25:00,
2014-01-22 15:30:00,-1.1,0.0,29.64,NW,315,5.0,9.0,88,0.00,,,0.00,Rainwise IP-100,2014-01-22 20:30:00,
2014-01-22 15:35:00,-1.3,-6.0,29.64,NW,315,6.0,8.0,87,0.00,,,0.00,Rainwise IP-100,2014-01-22 20:35:00,
2014-01-22 15:40:00,-1.6,0.0,29.64,NNW,337,9.0,11.0,89,0.00,,,0.00,Rainwise IP-100,2014-01-22 20:40:00,
2014-01-22 15:45:00,-1.6,0.0,29.64,NNW,337,7.0,10.0,92,0.00,,,0.00,Rainwise IP-100,2014-01-22 20:45:00,
2014-01-22 15:50:00,-1.7,0.0,29.64,NNW,337,7.0,10.0,91,0.00,,,0.00,Rainwise IP-100,2014-01-22 20:50:00,
2014-01-22 15:55:00,-1.7,0.0,29.64,WNW,292,3.0,9.0,89,0.00,,,0.00,Rainwise IP-100,2014-01-22 20:55:00,
2014-01-22 16:00:00,-1.6,0.0,29.65,West,270,5.0,8.0,89,0.00,,,0.00,Rainwise IP-100,2014-01-22 21:00:00,
2014-01-22 16:06:00,-1.6,0.0,29.65,NW,315,5.0,9.0,91,0.00,,,0.00,Rainwise IP-100,2014-01-22 21:06:00,
2014-01-22 16:11:00,-1.7,0.0,29.65,WNW,292,2.0,7.0,91,0.00,,,0.00,Rainwise IP-100,2014-01-22 21:11:00,
2014-01-22 16:16:00,-1.7,0.0,29.65,NW,315,4.0,6.0,91,0.00,,,0.00,Rainwise IP-100,2014-01-22 21:16:00,
2014-01-22 16:21:00,-1.8,0.0,29.66,WNW,292,1.0,6.0,91,0.00,,,0.00,Rainwise IP-100,2014-01-22 21:21:00,
2014-01-22 16:26:00,-1.8,0.0,29.66,NW,315,0.0,7.0,91,0.00,,,0.00,Rainwise IP-100,2014-01-22 21:26:00,
2014-01-22 16:31:00,-1.8,0.0,29.66,NW,315,5.0,5.0,92,0.00,,,0.00,Rainwise IP-100,2014-01-22 21:31:00,
2014-01-22 16:36:00,-1.8,0.0,29.66,NW,315,0.0,6.0,92,0.00,,,0.00,Rainwise IP-100,2014-01-22 21:36:00,
2014-01-22 16:42:00,-1.9,0.0,29.66,WNW,292,1.0,2.0,92,0.00,,,0.00,Rainwise IP-100,2014-01-22 21:42:00,
2014-01-22 16:47:00,-2.1,0.0,29.66,NW,315,2.0,5.0,93,0.00,,,0.00,Rainwise IP-100,2014-01-22 21:47:00,
2014-01-22 16:52:00,-2.2,0.0,29.66,NW,315,3.0,5.0,94,0.00,,,0.00,Rainwise IP-100,2014-01-22 21:52:00,
2014-01-22 16:57:00,-2.4,0.0,29.66,WNW,292,1.0,7.0,94,0.00,,,0.00,Rainwise IP-100,2014-01-22 21:57:00,
2014-01-22 17:02:00,-2.6,0.0,29.66,WNW,292,1.0,3.0,95,0.00,,,0.00,Rainwise IP-100,2014-01-22 22:02:00,
2014-01-22 17:07:00,-2.9,0.0,29.66,WNW,292,2.0,3.0,96,0.00,,,0.00,Rainwise IP-100,2014-01-22 22:07:00,
2014-01-22 17:12:00,-3.1,0.0,29.66,West,270,2.0,5.0,97,0.00,,,0.00,Rainwise IP-100,2014-01-22 22:12:00,
2014-01-22 17:17:00,-3.2,0.0,29.66,West,270,1.0,4.0,98,0.00,,,0.00,Rainwise IP-100,2014-01-22 22:17:00,
2014-01-22 17:23:00,-3.4,0.0,29.66,West,270,1.0,4.0,100,0.00,,,0.00,Rainwise IP-100,2014-01-22 22:23:00,
2014-01-22 17:28:00,-3.5,0.0,29.66,WNW,292,2.0,4.0,99,0.00,,,0.00,Rainwise IP-100,2014-01-22 22:28:00,
2014-01-22 17:33:00,-3.6,0.0,29.66,West,270,5.0,5.0,99,0.00,,,0.00,Rainwise IP-100,2014-01-22 22:33:00,
2014-01-22 17:38:00,-3.6,0.0,29.67,WNW,292,3.0,6.0,98,0.00,,,0.00,Rainwise IP-100,2014-01-22 22:38:00,
2014-01-22 17:43:00,-3.6,0.0,29.67,WNW,292,2.0,7.0,96,0.00,,,0.00,Rainwise IP-100,2014-01-22 22:43:00,
2014-01-22 17:48:00,-3.5,0.0,29.67,NW,315,6.0,8.0,95,0.00,,,0.00,Rainwise IP-100,2014-01-22 22:48:00,
2014-01-22 17:53:00,-3.5,0.0,29.67,NW,315,5.0,9.0,95,0.00,,,0.00,Rainwise IP-100,2014-01-22 22:53:00,
2014-01-22 17:59:00,-3.6,0.0,29.67,WNW,292,3.0,9.0,93,0.00,,,0.00,Rainwise IP-100,2014-01-22 22:59:00,
2014-01-22 18:04:00,-3.6,0.0,29.67,NW,315,3.0,8.0,93,0.00,,,0.00,Rainwise IP-100,2014-01-22 23:04:00,
2014-01-22 18:09:00,-3.7,0.0,29.67,WNW,292,5.0,8.0,93,0.00,,,0.00,Rainwise IP-100,2014-01-22 23:09:00,
2014-01-22 18:14:00,-3.8,0.0,29.67,NW,315,2.0,7.0,93,0.00,,,0.00,Rainwise IP-100,2014-01-22 23:14:00,
2014-01-22 18:19:00,-4.1,0.0,29.68,NW,315,1.0,6.0,93,0.00,,,0.00,Rainwise IP-100,2014-01-22 23:19:00,
2014-01-22 18:24:00,-4.3,0.0,29.67,NW,315,2.0,5.0,94,0.00,,,0.00,Rainwise IP-100,2014-01-22 23:24:00,
2014-01-22 18:29:00,-4.6,0.0,29.68,NW,315,0.0,3.0,94,0.00,,,0.00,Rainwise IP-100,2014-01-22 23:29:00,
2014-01-22 18:34:00,-5.1,0.0,29.67,NW,315,0.0,1.0,95,0.00,,,0.00,Rainwise IP-100,2014-01-22 23:34:00,
2014-01-22 18:40:00,-5.6,0.0,29.67,NW,315,0.0,1.0,97,0.00,,,0.00,Rainwise IP-100,2014-01-22 23:40:00,
2014-01-22 18:45:00,-6.1,-6.0,29.69,NW,315,0.0,0.0,97,0.00,,,0.00,Rainwise IP-100,2014-01-22 23:45:00,
2014-01-22 18:50:00,-6.8,-6.0,29.69,NW,315,0.0,1.0,97,0.00,,,0.00,Rainwise IP-100,2014-01-22 23:50:00,
2014-01-22 18:55:00,-7.2,-6.0,29.69,NW,315,0.0,0.0,100,0.00,,,0.00,Rainwise IP-100,2014-01-22 23:55:00,
2014-01-22 19:00:00,-7.7,-6.0,29.69,NW,315,0.0,1.0,100,0.00,,,0.00,Rainwise IP-100,2014-01-23 00:00:00,
2014-01-22 19:05:00,-8.2,-6.0,29.69,NW,315,2.0,2.0,100,0.00,,,0.00,Rainwise IP-100,2014-01-23 00:05:00,
2014-01-22 19:10:00,-8.7,-6.0,29.69,NW,315,0.0,2.0,100,0.00,,,0.00,Rainwise IP-100,2014-01-23 00:10:00,
2014-01-22 19:16:00,-9.1,-6.0,29.69,NW,315,0.0,1.0,100,0.00,,,0.00,Rainwise IP-100,2014-01-23 00:16:00,
2014-01-22 19:21:00,-9.5,-6.0,29.69,NW,315,0.0,0.0,100,0.00,,,0.00,Rainwise IP-100,2014-01-23 00:21:00,
2014-01-22 19:26:00,-9.9,-6.0,29.69,NW,315,0.0,1.0,100,0.00,,,0.00,Rainwise IP-100,2014-01-23 00:26:00,
2014-01-22 19:31:00,-9.6,-6.0,29.69,North,360,1.0,3.0,100,0.00,,,0.00,Rainwise IP-100,2014-01-23 00:31:00,
2014-01-22 19:36:00,-9.2,-6.0,29.69,North,360,0.0,3.0,100,0.00,,,0.00,Rainwise IP-100,2014-01-23 00:36:00,
2014-01-22 19:41:00,-9.1,-6.0,29.69,North,360,0.0,0.0,100,0.00,,,0.00,Rainwise IP-100,2014-01-23 00:41:00,
2014-01-22 19:46:00,-9.1,-6.0,29.69,North,360,0.0,0.0,100,0.00,,,0.00,Rainwise IP-100,2014-01-23 00:46:00,
2014-01-22 19:51:00,-9.2,-6.0,29.69,North,360,0.0,0.0,100,0.00,,,0.00,Rainwise IP-100,2014-01-23 00:51:00,
2014-01-22 21:15:00,-11.3,-6.0,29.71,North,360,0.0,0.0,100,0.00,,,0.00,Rainwise IP-100,2014-01-23 02:15:00,
2014-01-22 21:16:00,-11.3,-6.0,29.71,North,360,0.0,0.0,100,0.00,,,0.00,Rainwise IP-100,2014-01-23 02:16:00,
2014-01-22 21:20:00,-11.4,-6.0,29.71,North,360,0.0,1.0,100,0.00,,,0.00,Rainwise IP-100,2014-01-23 02:20:00,
2014-01-22 21:21:00,-11.3,-6.0,29.71,North,360,0.0,1.0,100,0.00,,,0.00,Rainwise IP-100,2014-01-23 02:21:00,
2014-01-22 21:23:00,-11.3,-6.0,29.71,North,360,0.0,0.0,100,0.00,,,0.00,Rainwise IP-100,2014-01-23 02:23:00,
2014-01-22 21:24:00,-11.4,-6.0,29.71,North,360,0.0,0.0,100,0.00,,,0.00,Rainwise IP-100,2014-01-23 02:24:00,
2014-01-22 21:29:00,-11.4,-6.0,29.70,North,360,0.0,0.0,100,0.00,,,0.00,Rainwise IP-100,2014-01-23 02:29:00,
2014-01-22 21:34:00,-11.9,-6.0,29.70,North,360,0.0,0.0,100,0.00,,,0.00,Rainwise IP-100,2014-01-23 02:34:00,
2014-01-22 21:39:00,-12.5,-6.0,29.71,North,360,0.0,0.0,100,0.00,,,0.00,Rainwise IP-100,2014-01-23 02:39:00,
2014-01-22 21:44:00,-12.9,-13.0,29.71,North,360,0.0,0.0,100,0.00,,,0.00,Rainwise IP-100,2014-01-23 02:44:00,
2014-01-22 21:49:00,-12.9,-13.0,29.71,North,360,0.0,2.0,100,0.00,,,0.00,Rainwise IP-100,2014-01-23 02:49:00,
2014-01-22 21:54:00,-13.1,-13.0,29.71,North,360,0.0,1.0,100,0.00,,,0.00,Rainwise IP-100,2014-01-23 02:54:00,
2014-01-22 22:00:00,-13.3,-13.0,29.70,North,360,0.0,0.0,100,0.00,,,0.00,Rainwise IP-100,2014-01-23 03:00:00,
2014-01-22 22:05:00,-12.8,-13.0,29.70,North,360,0.0,0.0,100,0.00,,,0.00,Rainwise IP-100,2014-01-23 03:05:00,
2014-01-22 22:10:00,-12.8,-13.0,29.70,North,360,0.0,0.0,100,0.00,,,0.00,Rainwise IP-100,2014-01-23 03:10:00,
2014-01-22 22:15:00,-13.1,-13.0,29.70,North,360,0.0,0.0,100,0.00,,,0.00,Rainwise IP-100,2014-01-23 03:15:00,
2014-01-22 22:20:00,-13.4,-13.0,29.70,North,360,0.0,0.0,100,0.00,,,0.00,Rainwise IP-100,2014-01-23 03:20:00,
2014-01-22 22:25:00,-13.6,-13.0,29.70,North,360,0.0,0.0,100,0.00,,,0.00,Rainwise IP-100,2014-01-23 03:25:00,
2014-01-22 22:30:00,-13.9,-13.0,29.70,North,360,0.0,1.0,100,0.00,,,0.00,Rainwise IP-100,2014-01-23 03:30:00,
2014-01-22 22:36:00,-14.1,-13.0,29.70,North,360,0.0,0.0,100,0.00,,,0.00,Rainwise IP-100,2014-01-23 03:36:00,
2014-01-22 22:41:00,-13.9,-13.0,29.70,North,360,0.0,0.0,100,0.00,,,0.00,Rainwise IP-100,2014-01-23 03:41:00,
2014-01-22 22:46:00,-13.5,-13.0,29.70,North,360,0.0,1.0,100,0.00,,,0.00,Rainwise IP-100,2014-01-23 03:46:00,
2014-01-22 22:51:00,-13.4,-13.0,29.70,North,360,0.0,0.0,100,0.00,,,0.00,Rainwise IP-100,2014-01-23 03:51:00,
2014-01-22 22:56:00,-12.9,-13.0,29.70,North,360,0.0,0.0,100,0.00,,,0.00,Rainwise IP-100,2014-01-23 03:56:00,
2014-01-22 23:01:00,-12.1,-6.0,29.71,ESE,112,0.0,2.0,100,0.00,,,0.00,Rainwise IP-100,2014-01-23 04:01:00,
2014-01-22 23:06:00,-11.9,-6.0,29.71,ESE,112,0.0,1.0,100,0.00,,,0.00,Rainwise IP-100,2014-01-23 04:06:00,
2014-01-22 23:11:00,-11.8,-6.0,29.71,ESE,112,1.0,2.0,100,0.00,,,0.00,Rainwise IP-100,2014-01-23 04:11:00,
2014-01-22 23:17:00,-12.1,-6.0,29.71,ESE,112,0.0,2.0,100,0.00,,,0.00,Rainwise IP-100,2014-01-23 04:17:00,
2014-01-22 23:22:00,-12.4,-6.0,29.71,ESE,112,0.0,0.0,100,0.00,,,0.00,Rainwise IP-100,2014-01-23 04:22:00,
2014-01-22 23:27:00,-12.7,-13.0,29.70,ESE,112,0.0,1.0,100,0.00,,,0.00,Rainwise IP-100,2014-01-23 04:27:00,
2014-01-22 23:32:00,-12.9,-13.0,29.70,ESE,112,0.0,1.0,100,0.00,,,0.00,Rainwise IP-100,2014-01-23 04:32:00,
2014-01-22 23:37:00,-12.8,-13.0,29.70,ESE,112,1.0,1.0,100,0.00,,,0.00,Rainwise IP-100,2014-01-23 04:37:00,
2014-01-22 23:42:00,-12.9,-13.0,29.71,ESE,112,0.0,1.0,100,0.00,,,0.00,Rainwise IP-100,2014-01-23 04:42:00,
2014-01-22 23:47:00,-13.1,-13.0,29.71,ESE,112,0.0,1.0,100,0.00,,,0.00,Rainwise IP-100,2014-01-23 04:47:00,
2014-01-22 23:52:00,-13.4,-13.0,29.71,ESE,112,0.0,0.0,100,0.00,,,0.00,Rainwise IP-100,2014-01-23 04:52:00,
2014-01-22 23:58:00,-13.6,-13.0,29.70,ESE,112,0.0,0.0,100,0.00,,,0.00,Rainwise IP-100,2014-01-23 04:58:00,